New York, NY

3:00 AM EST on December 08, 2019 (GMT -0500)
La Guardia

Weather History for KLGA - October, 2019

Change the Weather History Date:

Thursday, October 31, 2019

  Actual Average Record
Temperature  
Mean Temperature 63 °F 53 °F  
Max Temperature 66 °F 60 °F 81 °F (1946)
Min Temperature 59 °F 46 °F 33 °F (1975)
Degree Days  
Heating Degree Days 2 12  
Month to date heating degree days 151 237  
Since 1 July heating degree days 154 272  
Cooling Degree Days 0 0  
Month to date cooling degree days 29 23  
Year to date cooling degree days 1484 1213  
Growing Degree Days 13 (Base 50)    
Moisture  
Dew Point 62 °F    
Average Humidity 97    
Maximum Humidity 100    
Minimum Humidity 93    
Precipitation  
Precipitation 0.41 in 0.12 in 3.30 in (1956)
Month to date precipitation 5.58 3.78  
Year to date precipitation 42.06 37.76  
Snow  
Snow 0.00 in 0.00 in - ()
Month to date snowfall 0.0 0.0  
Since 1 July snowfall 0.0 0.0  
Snow Depth 0.00 in    
Sea Level Pressure  
Sea Level Pressure 29.87 in    
Wind  
Wind Speed 11 mph ()    
Max Wind Speed 31 mph    
Max Gust Speed 44 mph    
Visibility 5.7 miles    
Events Rain    
T = Trace of Precipitation, MM = Missing Value Source: Averaged Metar Reports

Daily Weather History Graph

Daily Weather History Graph

Search for Another Location

Airport or City:

Astronomy

Oct. 31, 2019 Rise Set
Actual Time 7:24 AM EDT 5:53 PM EDT
Civil Twilight 6:56 AM EDT 6:21 PM EDT
Nautical Twilight 6:23 AM EDT 6:53 PM EDT
Astronomical Twilight 5:51 AM EDT 7:25 PM EDT
Moon 11:11 AM EDT (10/31) 8:46 PM EDT (10/31)
Length of Visible Light 11h 25m
Length of Day
10h 28m
Waxing Crescent, 15% of the Moon is Illuminated
Oct 31
Waxing Crescent
Nov 4
First Quarter
Nov 12
Full
Nov 19
Last Quarter
Nov 26
New

Hourly Weather History & Observations

Time (EDT) Temp. Dew Point Humidity Pressure Visibility Wind Dir Wind Speed Gust Speed Precip Events Conditions
12:51 AM 60.1 °F 60.1 °F 100% 30.09 in 3.0 mi South 5.8 mph - 0.03 in Rain Light Rain
1:46 AM 60.8 °F 60.8 °F 100% 30.08 in 5.0 mi South 6.9 mph - 0.05 in Rain Light Rain
1:51 AM 60.1 °F 60.1 °F 100% 30.07 in 5.0 mi South 8.1 mph - 0.06 in Rain Rain
2:05 AM 60.1 °F 60.1 °F 100% 30.07 in 5.0 mi South 9.2 mph - 0.02 in Rain Light Rain
2:51 AM 60.1 °F 59.0 °F 96% 30.04 in 10.0 mi South 5.8 mph - 0.04 in Rain Light Rain
3:51 AM 60.1 °F 59.0 °F 96% 30.02 in 6.0 mi SSE 8.1 mph - 0.01 in Rain Light Rain
4:44 AM 60.1 °F 59.0 °F 96% 30.00 in 6.0 mi SSE 9.2 mph - 0.01 in   Overcast
4:51 AM 60.1 °F 59.0 °F 96% 30.00 in 6.0 mi South 6.9 mph - 0.01 in Rain Light Rain
5:22 AM 59.0 °F 59.0 °F 100% 30.00 in 2.5 mi South 4.6 mph - 0.03 in Rain Rain
5:46 AM 59.0 °F 57.2 °F 94% 29.99 in 6.0 mi South 10.4 mph - 0.07 in Rain Rain
5:51 AM 59.0 °F 57.9 °F 96% 29.98 in 6.0 mi SSE 10.4 mph - 0.07 in Rain Light Rain
6:13 AM 60.1 °F 59.0 °F 96% 29.98 in 4.0 mi South 11.5 mph - 0.03 in Rain Light Rain
6:31 AM 60.1 °F 59.0 °F 96% 29.96 in 6.0 mi SSE 12.7 mph - 0.04 in Rain Light Rain
6:41 AM 61.0 °F 60.1 °F 97% 29.96 in 6.0 mi South 9.2 mph 17.3 mph 0.05 in Rain Light Rain
6:51 AM 61.0 °F 61.0 °F 100% 29.96 in 6.0 mi South 9.2 mph - 0.05 in Rain Light Rain
7:17 AM 62.1 °F 61.0 °F 96% 29.94 in 5.0 mi South 13.8 mph - 0.01 in   Overcast
7:38 AM 62.1 °F 62.1 °F 100% 29.94 in 2.0 mi South 11.5 mph - 0.01 in Rain Light Rain
7:51 AM 62.1 °F 62.1 °F 100% 29.94 in 2.0 mi South 12.7 mph - 0.02 in Rain Light Rain
8:29 AM 63.0 °F 63.0 °F 100% 29.94 in 2.0 mi South 8.1 mph - 0.00 in Rain Light Rain
8:51 AM 63.0 °F 63.0 °F 100% 29.94 in 2.0 mi South 9.2 mph - 0.02 in Rain Rain
9:38 AM 64.0 °F 64.0 °F 100% 29.93 in 2.5 mi South 11.5 mph - 0.07 in Rain Light Rain
9:51 AM 64.0 °F 64.0 °F 100% 29.92 in 3.0 mi South 10.4 mph - 0.07 in Rain Light Rain
10:51 AM 64.9 °F 64.0 °F 97% 29.91 in 3.0 mi South 13.8 mph 20.7 mph 0.00 in   Overcast
11:33 AM 64.9 °F 64.0 °F 97% 29.89 in 2.0 mi South 12.7 mph - 0.01 in Rain Light Rain
11:51 AM 64.0 °F 64.0 °F 100% 29.88 in 4.0 mi South 13.8 mph - 0.02 in Rain Light Rain
12:15 PM 64.9 °F 64.0 °F 97% 29.87 in 4.0 mi South 16.1 mph 19.6 mph 0.00 in Rain Light Rain
12:51 PM 64.9 °F 64.0 °F 97% 29.85 in 4.0 mi South 12.7 mph - 0.00 in Rain Light Rain
1:51 PM 66.0 °F 64.0 °F 93% 29.81 in 7.0 mi South 15.0 mph - 0.01 in   Overcast
3:51 PM 66.9 °F 64.9 °F 93% 29.75 in 10.0 mi South 17.3 mph 28.8 mph N/A   Mostly Cloudy
4:13 PM 66.9 °F 64.9 °F 93% 29.74 in 10.0 mi South 17.3 mph 29.9 mph N/A   Overcast
4:51 PM 66.9 °F 64.9 °F 93% 29.73 in 8.0 mi South 21.9 mph 32.2 mph N/A   Overcast
5:30 PM 66.0 °F 64.0 °F 93% 29.71 in 10.0 mi South 23.0 mph 32.2 mph N/A   Overcast
5:51 PM 66.0 °F 64.0 °F 93% 29.71 in 7.0 mi South 18.4 mph 27.6 mph N/A   Overcast
6:51 PM 66.0 °F 64.9 °F 96% 29.70 in 7.0 mi South 23.0 mph 32.2 mph 0.00 in   Overcast
7:51 PM 66.0 °F 64.9 °F 96% 29.67 in 7.0 mi South 21.9 mph 33.4 mph 0.00 in   Overcast
8:51 PM 66.0 °F 64.9 °F 96% 29.62 in 7.0 mi South 28.8 mph 38.0 mph N/A   Overcast
9:51 PM 66.0 °F 64.9 °F 96% 29.60 in 8.0 mi South 21.9 mph 38.0 mph N/A   Overcast
10:14 PM 66.9 °F 64.9 °F 93% 29.59 in 10.0 mi South 23.0 mph 35.7 mph N/A   Overcast
10:51 PM 66.0 °F 64.9 °F 96% 29.57 in 10.0 mi South 26.5 mph 40.3 mph N/A   Overcast
11:51 PM 66.0 °F 64.0 °F 93% 29.52 in 10.0 mi South 26.5 mph 41.4 mph N/A   Overcast